Location: ???????
(55.3754°N, 39.3545°E)
Time: 17:44:58
(UTC+00:00)

USA 234 - Pass Details

Date: 14 April 2026
Orbit: 1102 x 1106 km, 123.0° (Epoch: 4 January)

Event Time Altitude Azimuth Distance (km) Brightness Sun altitude
Rises 18:54:26 0° 71° (ENE) 3,926 6.0 -18.0°
Reaches altitude 10° 18:56:55 10° 72° (ENE) 2,968 5.3 -18.2°
Maximum altitude 19:03:30 90° 167° (SSE) 1,111 3.2 -18.8°
Drops below altitude 10° 19:10:04 10° 254° (WSW) 2,965 5.8 -19.3°
Sets 19:12:33 0° 255° (WSW) 3,922 6.4 -19.5°
